Location: Clarks Summit,Pa.
(41.5000°N, 75.6000°W)
Time: 10:53:13
(UTC-04:00)

ISS - Visible Passes

Search period start: 16 July 2018 00:00
Search period end: 26 July 2018 00:00
Orbit: 402 x 408 km, 51.6° (Epoch: 17 July)

Date Brightness Start Highest point End Pass type
(mag) Time Alt. Az. Time Alt. Az. Time Alt. Az.
16 Jul -1.2 01:09:47 21° NNE 01:09:47 21° NNE 01:11:24 10° NE visible
16 Jul -0.7 02:43:57 10° NW 02:45:51 14° N 02:47:43 10° NNE visible
16 Jul -1.0 04:20:43 10° NNW 04:23:16 20° NNE 04:25:49 10° ENE visible
17 Jul -0.9 00:19:02 13° NE 00:19:02 13° NE 00:19:28 10° NE visible
17 Jul -0.7 01:51:38 11° NW 01:53:28 16° N 01:55:33 10° NNE visible
17 Jul -0.7 03:28:44 10° NNW 03:30:56 16° NNE 03:33:09 10° NE visible
17 Jul -2.7 05:04:48 10° NW 05:08:01 49° NNE 05:11:14 10° ESE visible
18 Jul -1.0 01:00:30 18° NNW 01:01:07 18° NNW 01:03:32 10° NNE visible
18 Jul -0.6 02:36:38 10° NNW 02:38:34 15° N 02:40:30 10° NE visible
18 Jul -1.8 04:12:50 10° NW 04:15:49 31° NNE 04:18:48 10° E visible
18 Jul -2.8 22:28:52 10° SW 22:35:07 11° ENE 22:35:20 10° ENE visible
19 Jul -1.4 00:07:05 16° WNW 00:08:47 24° NNW 00:11:33 10° NE visible
19 Jul -0.5 01:44:18 10° NW 01:46:09 14° N 01:48:01 10° NNE visible
19 Jul -1.2 03:20:52 10° NW 03:23:33 22° NNE 03:26:13 10° ENE visible
19 Jul -3.9 04:57:02 10° WNW 05:00:19 73° SW 05:03:35 10° SE visible
19 Jul -3.1 21:37:09 10° SSW 21:40:04 30° SE 21:43:01 10° ENE visible
19 Jul -2.1 23:13:29 10° W 23:16:31 34° NNW 23:19:35 10° NE visible
20 Jul -0.6 00:51:45 10° NW 00:53:44 15° N 00:55:44 10° NNE visible
20 Jul -0.8 02:28:53 10° NNW 02:31:12 17° NNE 02:33:31 10° ENE visible
20 Jul -3.3 04:04:56 10° NW 04:08:12 60° NNE 04:11:28 10° ESE visible
20 Jul -3.2 22:21:05 10° WSW 22:24:18 57° NNW 22:27:33 10° NE visible
20 Jul -0.8 23:59:04 10° WNW 00:01:20 17° NNW 00:03:37 10° NNE visible
21 Jul -0.6 01:36:47 10° NNW 01:38:47 15° N 01:40:48 10° NE visible
21 Jul -2.2 03:12:54 10° NW 03:16:00 36° NNE 03:19:04 10° E visible
21 Jul -3.0 04:49:30 10° WNW 04:52:25 29° SW 04:55:19 10° SSE visible
21 Jul -3.9 21:28:54 10° SW 21:32:10 77° SE 21:35:27 10° ENE visible
21 Jul -1.1 23:06:21 10° WNW 23:08:57 21° NNW 23:11:35 10° NE visible
22 Jul -0.5 00:44:30 10° NNW 00:46:21 14° N 00:48:13 10° NE visible
22 Jul -1.5 02:20:55 10° NW 02:23:42 25° NNE 02:26:29 10° E visible
22 Jul -3.8 03:57:08 10° WNW 04:00:23 57° SW 04:03:36 10° SE visible
22 Jul -1.7 22:13:41 10° W 22:16:37 30° NNW 22:19:34 10° NE visible
22 Jul -0.5 23:51:59 10° NW 23:53:54 14° N 23:55:48 10° NNE visible
23 Jul -0.9 01:28:54 10° NNW 01:30:48 18° N 01:30:48 18° N visible
23 Jul -2.7 21:21:10 10° WSW 21:24:21 46° NNW 21:27:32 10° NE visible
23 Jul -0.7 22:59:18 10° NW 23:01:27 16° N 23:03:36 10° NNE visible
24 Jul -0.8 00:36:49 10° NNW 00:38:54 16° N 00:39:23 15° NNE visible
24 Jul -1.0 22:06:32 10° WNW 22:09:00 20° NNW 22:11:30 10° NNE visible
24 Jul -0.7 23:44:33 10° NNW 23:46:26 14° N 23:48:19 10° NE visible
25 Jul -0.5 01:20:50 10° NW 01:21:03 11° NW 01:21:03 11° NW visible
25 Jul -1.5 21:13:48 10° W 21:16:37 26° NNW 21:19:28 10° NE visible
25 Jul -0.7 22:52:05 10° NW 22:53:57 14° N 22:55:48 10° NNE visible
